STARLINK H

Last updated on June 19, 2020, 12:02 a.m. UTC

1 45737U 20038H   20170.66667824  .01911142  20183-2  35900-2 0  9998
2 45737  53.0006 272.2774 0098791  69.8709  15.6454 15.92071848  2121

Satellite is not in orbit.